Flag for U.S.A. Weather past 2 weeks in Lubbock, Texas, U.S.A.

Now
61 °F

Mostly cloudy.


Feels Like: 61 °F
Forecast: 62 / 73 °F
Wind: 7 mph from East

Location: Lubbock International Airport

Current Time: May 30, 2015 at 3:40:06 AM

Latest Report: May 30, 2015 at 2:53 AM


Visibility: 10 mi

Pressure: 29.96 "Hg

Humidity: 72%

Dew point: 52 °F

Location of LubbockLocation

Historic Weather in Lubbock — Graph

°F

Lubbock temperature yesterday

Maximum temperature yesterday: 81 °F (at 2:53 PM)
Minimum temperature yesterday: 56 °F (at 5:53 AM)
Average temperature yesterday: 67 °F

Past Weeks' High & Low Weather Summary

 TemperatureHumidityPressure
High85 °F (May 26, 4:53 PM)100% (May 20, 5:03 AM)30.28 "Hg (May 20, 5:03 AM)
Low47 °F (May 21, 5:53 AM)18% (May 16, 6:53 PM)29.60 "Hg (May 16, 3:53 PM)
Average65 °F71%29.89 "Hg
* Reported May 15 1:53 AM — May 30 1:53 AM, Lubbock, Weather by CustomWeather, © 2015

Note: Actual official high and low records may vary slightly from our data, if they occured in-between our weather recording intervals... More about our weather records

Advertising

Lubbock weather history for previous 24 hours

 ConditionsComfort  
Time TempWeatherWind HumidityBarometerVisibility
1:53 AM
Sat, May 30
61 °FOvercast.21 mph75%29.96 "Hg10 mi
12:53 AM60 °FThunderstorms. Overcast.20 mph83%29.98 "Hg10 mi
11:53 PM
Fri, May 29
59 °FThunderstorms. Fog.10 mph90%30.10 "Hg6 mi
10:53 PM60 °FThunderstorms. Overcast.22 mph86%30.07 "Hg7 mi
10:00 PM63 °FThunderstorms. Overcast.26 mph68%30.11 "Hg8 mi
8:53 PM72 °FPartly sunny.8 mph73%29.91 "Hg10 mi
7:53 PM77 °FScattered clouds.9 mph56%29.88 "Hg10 mi
6:53 PM80 °FScattered clouds.12 mph47%29.87 "Hg10 mi
5:53 PM80 °FPartly sunny.7 mph49%29.88 "Hg10 mi
4:53 PM81 °FBroken clouds.6 mph45%29.87 "Hg10 mi
3:53 PM81 °FScattered clouds.3 mph41%29.88 "Hg10 mi
2:53 PM81 °FScattered clouds.N/A44%29.89 "Hg10 mi
1:53 PM80 °FPassing clouds.8 mph45%29.90 "Hg10 mi
12:53 PM77 °FPassing clouds.9 mph56%29.91 "Hg10 mi
11:53 AM73 °FPassing clouds.9 mph66%29.91 "Hg10 mi
10:53 AM68 °FPassing clouds.7 mph76%29.93 "Hg10 mi
9:53 AM61 °FFog.5 mph90%29.95 "Hg4 mi
8:53 AM58 °FFog.5 mph97%29.94 "Hg1 mi
7:53 AM59 °FFog.3 mph93%29.92 "Hg5 mi
6:53 AM56 °FPartly cloudy.6 mph97%29.90 "Hg8 mi
5:53 AM56 °FPassing clouds.5 mph97%29.89 "Hg10 mi
4:53 AM57 °FPassing clouds.7 mph93%29.91 "Hg10 mi
3:53 AM58 °FOvercast.5 mph93%29.89 "Hg10 mi
Weather by CustomWeather, © 2015

See weather overviewHow to use our weather pages